El Centro, CA

3:14 AM PST on November 21, 2017 (GMT -0800)
El Centro Naval Air Facility

Weather History for KNJK - March, 2013

Change the Weather History Date:

Friday, March 8, 2013

  Actual Average Record
Temperature  
Mean Temperature 56 °F -  
Max Temperature 64 °F 75 °F 90 °F (2004)
Min Temperature 48 °F 51 °F 39 °F (2012)
Degree Days  
Heating Degree Days 9    
Growing Degree Days 6 (Base 50)    
Moisture  
Dew Point 39 °F    
Average Humidity 54    
Maximum Humidity 83    
Minimum Humidity 30    
Precipitation  
Precipitation 0.02 in - - ()
Sea Level Pressure  
Sea Level Pressure 29.90 in    
Wind  
Wind Speed 15 mph (WSW)    
Max Wind Speed 33 mph    
Max Gust Speed 43 mph    
Visibility 10 miles    
Events Rain    
Averages and records for this station are not official NWS values.
T = Trace of Precipitation, MM = Missing Value Source: NWS Daily Summary

Daily Weather History Graph

Daily Weather History Graph

Search for Another Location

Airport or City:

Trip Planner

Search our weather history database for the weather conditions in past years. The results will help you decide how hot, cold, wet, or windy it might be!

Date:

Astronomy

Mar. 08, 2013 Rise Set
Actual Time 6:01 AM PST 5:45 PM PST
Civil Twilight 5:36 AM PST 6:10 PM PST
Nautical Twilight 5:08 AM PST 6:38 PM PST
Astronomical Twilight 4:39 AM PST 7:07 PM PST
Moon 3:40 AM PST (3/8) 2:53 PM PST (3/8)
Length of Visible Light 12h 33m
Length of Day
11h 44m
Waning Crescent, 11% of the Moon is Illuminated
Mar 8
Waning Crescent
Mar 11
New
Mar 19
First Quarter
Mar 27
Full
Apr 2
Last Quarter

Hourly Weather History & Observations

Time (PST) Temp. Dew Point Humidity Pressure Visibility Wind Dir Wind Speed Gust Speed Precip Events Conditions
12:56 AM 57.0 °F 37.0 °F 47% 29.85 in 10.0 mi North 8.1 mph - N/A   Clear
1:56 AM 60.1 °F 42.1 °F 51% 29.84 in 10.0 mi WNW 8.1 mph - 0.00 in Rain Light Rain
2:18 AM 59.0 °F 42.8 °F 55% 29.79 in 10.0 mi WSW 16.1 mph 24.2 mph 0.00 in Rain Light Rain
2:56 AM 54.0 °F 46.9 °F 77% 29.85 in 10.0 mi WSW 18.4 mph - 0.00 in Rain Light Rain
3:56 AM 53.1 °F 46.0 °F 77% 29.83 in 10.0 mi WSW 8.1 mph - 0.02 in   Mostly Cloudy
4:56 AM 51.1 °F 45.0 °F 80% 29.82 in 10.0 mi NW 3.5 mph - N/A   Clear
5:56 AM 48.9 °F 44.1 °F 83% 29.83 in 10.0 mi West 10.4 mph - N/A   Scattered Clouds
6:56 AM 54.0 °F 44.1 °F 69% 29.85 in 10.0 mi WSW 16.1 mph 27.6 mph 0.00 in Rain Light Rain
7:08 AM 53.6 °F 44.6 °F 72% 29.82 in 10.0 mi SW 17.3 mph 25.3 mph 0.00 in   Mostly Cloudy
7:37 AM 55.4 °F 42.8 °F 63% 29.85 in 10.0 mi WSW 20.7 mph 25.3 mph 0.00 in Rain Light Rain
7:56 AM 53.1 °F 44.1 °F 71% 29.90 in 10.0 mi WSW 6.9 mph - 0.00 in Rain Light Rain
8:06 AM 53.6 °F 44.6 °F 72% 29.85 in 10.0 mi SW 9.2 mph - 0.00 in   Overcast
8:56 AM 55.9 °F 37.9 °F 51% 29.90 in 10.0 mi SW 15.0 mph - 0.00 in   Mostly Cloudy
9:56 AM 61.0 °F 36.0 °F 39% 29.91 in 10.0 mi WSW 15.0 mph - N/A   Scattered Clouds
10:56 AM 63.0 °F 34.0 °F 34% 29.90 in 10.0 mi WSW 21.9 mph 28.8 mph N/A   Scattered Clouds
11:56 AM 64.0 °F 32.0 °F 30% 29.90 in 10.0 mi West 23.0 mph 32.2 mph N/A   Scattered Clouds
12:56 PM 63.0 °F 34.0 °F 34% 29.87 in 10.0 mi West 33.4 mph 42.6 mph N/A   Mostly Cloudy
1:56 PM 59.0 °F 34.0 °F 39% 29.88 in 10.0 mi West 23.0 mph - N/A   Mostly Cloudy
2:56 PM 60.1 °F 34.0 °F 38% 29.88 in 10.0 mi West 24.2 mph 32.2 mph N/A   Mostly Cloudy
3:56 PM 57.9 °F 35.1 °F 42% 29.90 in 10.0 mi West 20.7 mph 31.1 mph N/A   Mostly Cloudy
4:56 PM 57.9 °F 35.1 °F 42% 29.90 in 10.0 mi WSW 24.2 mph 29.9 mph N/A   Mostly Cloudy
5:56 PM 54.0 °F 36.0 °F 51% 29.93 in 10.0 mi WSW 19.6 mph 29.9 mph N/A   Scattered Clouds
6:56 PM 54.0 °F 35.1 °F 49% 29.96 in 10.0 mi WSW 19.6 mph 27.6 mph N/A   Clear
7:56 PM 54.0 °F 35.1 °F 49% 29.99 in 10.0 mi WSW 19.6 mph - N/A   Clear
8:56 PM 53.1 °F 35.1 °F 50% 30.02 in 10.0 mi WSW 16.1 mph - N/A   Clear
9:56 PM 54.0 °F 32.0 °F 43% 30.03 in 10.0 mi West 28.8 mph 36.8 mph N/A   Clear
10:56 PM 54.0 °F 34.0 °F 47% 30.02 in 10.0 mi West 25.3 mph - N/A   Clear
11:56 PM 53.1 °F 36.0 °F 52% 30.02 in 10.0 mi WSW 23.0 mph - N/A   Clear